This demonstration page uses our WeatherBlox Daily Observations layout. Learn more.

Left ArrowRight Arrow

47.50024, -111.30081

Hourly Observations for January 24, 2022

Temp ( °F °C ) Dew Point ( °F °C ) Humidity (%) Winds ( mph kmh ) Pressure ( in mb ) Visibility ( mi km ) Precip ( " mm )
12:53 am 00:53 Clear 28 -2.2 17 -8.3 63 63 W 5 7 30.12 1020 10 16 0.00 0.00
1:53 am 01:53 Clear 28 -2.2 17 -8.3 63 63 SW 9 15 30.11 1020 10 16 0.00 0.00
2:53 am 02:53 Clear 24 -4.4 16 -8.9 71 71 WSW 7 11 30.12 1020 10 16 0.00 0.00
3:53 am 03:53 Clear 25 -3.9 16 -8.9 69 69 WSW 7 11 30.12 1020 10 16 0.00 0.00
4:53 am 04:53 Clear 22 -5.6 15 -9.4 75 75 SW 8 13 30.12 1020 10 16 0.00 0.00
5:53 am 05:53 Clear 27 -2.8 18 -7.8 69 69 SW 8 13 30.13 1020 10 16 0.00 0.00
6:53 am 06:53 Cloudy 28 -2.2 20 -6.7 72 72 SW 8 13 30.10 1019 10 16 0.00 0.00
7:53 am 07:53 Cloudy 28 -2.2 20 -6.7 72 72 SW 7 11 30.10 1019 10 16 0.00 0.00
8:53 am 08:53 Cloudy 30 -1.1 20 -6.7 66 66 WSW 3 6 30.12 1020 10 16 0.00 0.00
9:12 am 09:12 Cloudy 30 -1.1 20 -6.7 66 66 S 5 7 30.17 1022 1 2 0.00 0.00
9:22 am 09:22 Cloudy with Light Snow 31 -0.6 22 -5.6 69 69 ENE 5 7 30.16 1021 1 1 0.00 0.00
9:53 am 09:53 Cloudy with Light Snow 29 -1.7 26 -3.3 89 89 S 5 7 30.16 1021 1 2 0.02 0.51
10:53 am 10:53 Cloudy with Light Snow 31 -0.6 29 -1.7 92 92 Calm 30.17 1022 1 1 0.01 0.25
11:16 am 11:16 Cloudy with Light Snow 31 -0.6 29 -1.7 92 92 W 3 6 30.18 1022 1 1 0.02 0.51
11:23 am 11:23 Cloudy with Snow 31 -0.6 29 -1.7 92 92 WNW 5 7 30.18 1022 1 1 0.02 0.51
11:31 am 11:31 Cloudy with Snow 31 -0.6 29 -1.7 92 92 W 3 6 30.18 1022 0 0 0.03 0.76
11:45 am 11:45 Mostly Cloudy with Snow 31 -0.6 29 -1.7 92 92 W 5 7 30.18 1022 1 1 0.04 1.02
11:53 am 11:53 Mostly Cloudy with Light Snow 31 -0.6 29 -1.7 92 92 W 5 7 30.17 1022 1 1 0.05 1.27
12:01 pm 12:01 Cloudy with Light Snow 31 -0.6 29 -1.7 92 92 WSW 3 6 30.18 1022 1 1 0.00 0.00
12:14 pm 12:14 Cloudy with Light Snow 31 -0.6 29 -1.7 92 92 WSW 5 7 30.18 1022 1 2 0.00 0.00
12:21 pm 12:21 Cloudy with Light Snow 31 -0.6 29 -1.7 92 92 WSW 6 9 30.18 1022 1 1 0.00 0.00
12:42 pm 12:42 Cloudy with Light Snow 31 -0.6 29 -1.7 92 92 WSW 6 9 30.18 1022 3 5 0.01 0.25
12:53 pm 12:53 Cloudy with Light Snow 31 -0.6 29 -1.7 92 92 WSW 8 13 30.19 1022 1 2 0.01 0.25
1:03 pm 13:03 Cloudy with Light Snow 30 -1.1 29 -1.7 96 96 W 6 9 30.19 1022 3 5 0.00 0.00
1:21 pm 13:21 Cloudy with Light Snow 30 -1.1 29 -1.7 96 96 WSW 7 11 30.19 1022 3 4 0.00 0.00
1:34 pm 13:34 Cloudy with Light Snow 30 -1.1 29 -1.7 96 96 WSW 7 11 30.19 1022 1 1 0.00 0.00
1:42 pm 13:42 Cloudy with Light Snow 30 -1.1 29 -1.7 96 96 WSW 8 13 30.19 1022 1 1 0.01 0.25
1:53 pm 13:53 Cloudy with Light Snow 31 -0.6 29 -1.7 92 92 W 7 11 30.19 1022 1 1 0.01 0.25
2:14 pm 14:14 Cloudy with Light Snow 31 -0.6 29 -1.7 92 92 W 7 11 30.18 1022 1 1 0.02 0.51
2:53 pm 14:53 Cloudy with Light Snow 31 -0.6 30 -1.1 96 96 WNW 8 13 30.21 1023 1 1 0.03 0.76
3:15 pm 15:15 Cloudy with Light Snow 31 -0.6 30 -1.1 96 96 WNW 8 13 30.19 1022 1 2 0.01 0.25
3:28 pm 15:28 Cloudy with Light Snow 31 -0.6 30 -1.1 96 96 WNW 8 13 30.20 1023 1 1 0.02 0.51
3:37 pm 15:37 Cloudy with Light Snow 32 0 30 -1.1 92 92 WNW 8 13 30.19 1022 1 2 0.02 0.51
3:44 pm 15:44 Cloudy with Light Snow 32 0 30 -1.1 92 92 WNW 8 13 30.19 1022 1 2 0.02 0.51
3:53 pm 15:53 Cloudy with Light Snow 32 0 30 -1.1 92 92 NW 9 15 30.22 1023 1 1 0.02 0.51
4:07 pm 16:07 Cloudy with Light Snow 32 0 30 -1.1 92 92 NNW 9 15 30.20 1023 0 0 0.00 0.00
4:36 pm 16:36 Cloudy with Light Snow 32 0 30 -1.1 92 92 NNW 9 15 30.21 1023 1 2 0.01 0.25
4:47 pm 16:47 Windy with Snow Likely 30 -1 28 -2 93 93 NNW 20 31 30.24 1024 1 1 0.01 0.25
4:53 pm 16:53 Cloudy with Light Snow 31 -0.6 29 -1.7 92 92 N 15 24 30.27 1025 1 1 0.01 0.25
5:00 pm 17:00 Cloudy with Light Snow 31 -0.6 29 -1.7 92 92 N 15 24 30.23 1024 2 3 0.00 0.00
5:03 pm 17:03 Cloudy with Light Snow 31 -0.6 29 -1.7 92 92 N 13 20 30.24 1024 3 5 0.00 0.00
5:53 pm 17:53 Cloudy 30 -1.1 28 -2.2 92 92 NNW 8 13 30.27 1025 10 16 0.00 0.00
6:04 pm 18:04 Cloudy 30 -1.1 28 -2.2 92 92 NNW 10 17 30.27 1025 10 16 0.00 0.00
6:25 pm 18:25 Cloudy 30 -1.1 27 -2.8 88 88 NNW 7 11 30.27 1025 10 16 0.00 0.00
6:53 pm 18:53 Cloudy 29 -1.7 26 -3.3 89 89 NW 8 13 30.29 1026 10 16 0.00 0.00
7:03 pm 19:03 Cloudy 31 -0.6 27 -2.8 85 85 NNW 9 15 30.28 1025 10 16 0.00 0.00
7:26 pm 19:26 Cloudy 30 -1.1 27 -2.8 88 88 NW 6 9 30.30 1026 10 16 0.00 0.00
7:53 pm 19:53 Mostly Cloudy 27 -2.8 24 -4.4 89 89 NNW 5 7 30.31 1026 10 16 0.00 0.00
8:48 pm 20:48 Cloudy 28 -2 27 -3 93 93 NW 9 15 30.33 1027 10 16 0.00 0.00
8:53 pm 20:53 Cloudy 30 -1.1 27 -2.8 88 88 NW 8 13 30.32 1027 10 16 0.00 0.00
9:09 pm 21:09 Cloudy 29 -1.7 26 -3.3 89 89 NW 7 11 30.34 1027 10 16 0.00 0.00
9:26 pm 21:26 Cloudy 29 -1.7 27 -2.8 92 92 NW 8 13 30.33 1027 10 16 0.00 0.00
9:37 pm 21:37 Cloudy 29 -1.7 27 -2.8 92 92 NW 10 17 30.33 1027 10 16 0.00 0.00
9:53 pm 21:53 Cloudy 30 -1.1 27 -2.8 88 88 NW 10 17 30.33 1027 10 16 0.00 0.00
10:22 pm 22:22 Cloudy 29 -1.7 26 -3.3 89 89 NW 8 13 30.34 1027 10 16 0.00 0.00
10:41 pm 22:41 Cloudy 28 -2.2 26 -3.3 92 92 NW 8 13 30.35 1028 10 16 0.00 0.00
10:53 pm 22:53 Cloudy 29 -1.7 26 -3.3 89 89 WNW 6 9 30.34 1027 10 16 0.00 0.00
11:53 pm 23:53 Cloudy 29 -1.7 27 -2.8 92 92 W 8 13 30.35 1028 10 16 0.00 0.00

Powered by AerisWeather